Weather in Toktarsola

Russia / Mari El Republic     56°55′11″N   48°43′22″E
temp.,
°C
wind,
m/s
gust,
m/s
humid.,
%
clouds,
%
prec.,
mm/h
press.,
hPa
HPBL,
m
1 march, mon
mon100:00−20n339945 0.0 101721
03:00−22n339822 0.0 101923
06:00−23n23980 0.0 102020
09:00−19wnw11940 0.0 102160
12:00−14w348924 0.0 1020276
15:00−11sw469352 0.0 1018354
18:00−11sw51096100 0.0 1015269
21:00−10sw61295100 0.1 1012298
2 march, tue
tue200:00−7sw81494100 1.4 1008508
03:00−4sw81595100 2.7 1004550
06:00−2sw81396100 1.4 999519
09:000w71198100 3.2 998632
12:000w61099100 1.1 996620
15:00−1wnw81296100 2.8 996694
18:00−2wnw51188100 0.1 996535
21:00−4wnw6139197 0.3 997427
3 march, wed
wed300:00−6wnw5129490 0.0 998286
03:00−7wnw5119686 0.1 999288
06:00−7wnw61195100 0.1 999394
09:00−6nw61092100 0.3 1001543
12:00−5nw7989100 0.1 1002738
15:00−5nw6989100 0.3 1003865
18:00−9wnw499491 0.1 1004165
21:00−8w5129195 0.2 1005405
4 march, thu
thu400:00−8wsw5109586 0.2 1003342
03:00−8wsw599592 0.4 1002247
06:00−10w479796 0.1 1001123
09:00−7sw589597 0.1 1000312
12:00−4ssw71192100 0.1 997686
15:00−3sw81395100 1.3 993909
18:00−1sw81496100 1.4 990804
21:00−1wsw71392100 1.6 989808
5 march, fri
fri500:00−3w61286100 1.1 988636
03:00−8w8158995 1.1 990707
06:00−9nw91590100 0.3 995774
09:00−10wnw7138996 0.3 1000568
12:00−8wnw698895 0.0 1004700
15:00−8wnw6108379 0.0 1007759
18:00−11w349547 0.0 100977
21:00−11w359673 0.3 101299